Zurück zum Katalog

METEOR 1-16

AktivWetterPO
NORAD 7209·PAYLOAD·🇷🇺 Russia

Gestartet Mar 5, 1974 von Plesetsk Cosmodrome

Loading…

Nächste Überflüge (nächste 24 Stunden)

TLE

AktuellSource: Space-Track

Epoche: Sep 14, 2026, 13:16 UTC

1 07209U 74011A   26257.55316956  .00000048  00000-0  18274-4 0  9991
2 07209  81.2260 301.8667 0039326 146.1019 214.2680 14.14563281707872

Verfolge METEOR 1-16 in Echtzeit mit AllMySat

Download on the App Store